Powrót do katalogu

STARLINK-5617

AktywnyŁącznośćVLEO
NORAD 55753·PAYLOAD·🇺🇸 United States

Wystrzelony Mar 3, 2023 z Vandenberg Space Force Base

Loading…

Następne Przeloty (najbliższe 24 godziny)

TLE

ŚwieżeSource: CelesTrak SupGP

Epoka: Sep 14, 2026, 22:20 UTC

1 55753C 23028N   26257.93104167  .00002159  00000+0  18093-3 0  2570
2 55753  70.0004 127.2811 0002674 271.5554 228.7445 14.98323671    15

Śledź STARLINK-5617 w czasie rzeczywistym z AllMySat

Download on the App Store